Weather in Mednoye

Russia / Tambov Oblast     52°19′59″N   41°51′48″E
temp.,
°C
wind,
m/s
gust,
m/s
humid.,
%
clouds,
%
prec.,
mm/h
press.,
hPa
HPBL,
m
4 march, thu
thu400:00−4wsw5129490 0.0 1014335
03:00−2w7119495 0.1 1013524
06:00−1wsw71390100 0.1 1011651
09:00−1wsw9169199 0.1 1009620
12:000wsw9168663 0.0 1008689
15:00+1wsw9178452 0.0 1006818
18:000wsw6158574 0.0 1004650
21:00+1w5139183 0.0 1003766
5 march, fri
fri500:000w51097100 0.1 1002561
03:000wsw51195100 0.5 1002470
06:00−1wnw61098100 0.6 1003526
09:00−2wnw589599 0.9 1006530
12:00−1nnw468894 0.1 1008661
15:00−2nw469092 0.1 1011549
18:00−6wnw239054 0.0 101221
21:00−7wnw129368 0.0 101521
6 march, sat
sat600:00−8nnw119695 0.0 101521
03:00−8ne129298 0.0 101621
06:00−9ene2291100 0.0 101621
09:00−8e2392100 0.0 101591
12:00−5ene2386100 0.0 1015252
15:00−5ene128784 0.0 1014280
18:00−9ene11910 0.0 101421
21:00−11e119010 0.0 101521
7 march, sun
sun700:00−11w228968 0.0 101621
03:00−10wsw339771 0.1 101764
06:00−11w479796 0.1 1017142
09:00−10wsw5118967 0.1 1016297
12:00−5sw8138292 0.0 1014859
15:00−4sw9167596 0.0 10101128
18:00−3sw91877100 0.0 10061200
21:00−3wsw101794100 0.6 10051052
8 march, mon
mon800:00−6nnw51089100 1.6 1005388
03:00−8sw4690100 1.6 1005109
06:00−6ssw3596100 0.1 1003135
09:00−2sw101593100 1.7 10021052
12:00−3w91582100 1.0 10021335
15:00−6wnw8147380 1.1 10061224
18:00−9wnw614820 0.0 1009485
21:00−12w48880 0.0 1013128